KE5WLM Weather Reports


Display with metric or nautical units.
time (UTC)temp
F
wind
direction
speed
MPH
gust
MPH
rain 1hr
in
rain 24hr
in
rain mn
in
humidity
%
barometer
mb
20260506051005 65 246 0.0 0.0 0.00 0.00 0.00 51 1011.0
20260506050504 65 246 0.0 1.0 0.00 0.00 0.00 53 1010.9
20260506045005 65 261 1.0 3.0 0.00 0.00 0.00 52 1010.9
20260506044502 65 306 0.0 1.0 0.00 0.00 0.00 50 1010.9
20260506044003 65 306 0.0 1.0 0.00 0.00 0.00 50 1011.0
20260506043501 65 306 0.0 1.0 0.00 0.00 0.00 50 1010.9
20260506043002 65 306 0.0 3.0 0.00 0.00 0.00 51 1010.9
20260506042600 65 306 2.0 3.0 0.00 0.00 0.00 51 1010.8
20260506042059 66 317 0.0 0.0 0.00 0.00 0.00 50 1010.8
20260506041602 66 317 0.0 1.0 0.00 0.00 0.00 50 1010.9
20260506041056 66 317 0.0 0.0 0.00 0.00 0.00 49 1010.8
20260506040556 67 317 0.0 4.0 0.00 0.00 0.00 49 1010.8
20260506040056 67 317 0.0 7.0 0.00 0.00 0.00 48 1010.8
20260506035557 68 242 1.0 7.0 0.00 0.00 0.00 46 1010.8
20260506035056 68 240 0.0 4.0 0.00 0.00 0.00 46 1010.8
20260506034613 68 240 0.0 4.0 0.00 0.00 0.00 45 1010.7
20260506034056 69 240 0.0 3.0 0.00 0.00 0.00 43 1010.8
20260506033554 69 240 0.0 3.0 0.00 0.00 0.00 40 1010.6
20260506033053 70 257 0.0 3.0 0.00 0.00 0.00 41 1010.6
20260506032559 70 273 0.0 0.0 0.00 0.00 0.00 40 1010.5
20260506032058 71 273 0.0 0.0 0.00 0.00 0.00 39 1010.4
20260506031601 70 273 0.0 4.0 0.00 0.00 0.00 39 1010.4
20260506031053 70 273 1.0 5.0 0.00 0.00 0.00 40 1010.3
20260506030554 70 248 0.0 4.0 0.00 0.00 0.00 40 1010.3
20260506030052 70 249 0.0 1.0 0.00 0.00 0.00 41 1010.3
20260506025556 70 249 0.0 0.0 0.00 0.00 0.00 41 1010.2
20260506025052 70 249 0.0 4.0 0.00 0.00 0.00 41 1010.3
20260506024608 71 246 1.0 4.0 0.00 0.00 0.00 40 1010.2
20260506024052 71 246 0.0 1.0 0.00 0.00 0.00 39 1010.2
20260506023552 72 261 0.0 0.0 0.00 0.00 0.00 39 1010.3
20260506023051 72 261 0.0 1.0 0.00 0.00 0.00 38 1010.3
20260506022551 73 261 0.0 6.0 0.00 0.00 0.00 37 1010.2
20260506022051 73 257 1.0 6.0 0.00 0.00 0.00 37 1010.1
20260506021552 73 269 0.0 0.0 0.00 0.00 0.00 36 1010.2
20260506021051 74 269 0.0 1.0 0.00 0.00 0.00 36 1010.2
20260506020650 74 269 0.0 2.0 0.00 0.00 0.00 35 1010.1
20260506020050 75 269 0.0 7.0 0.00 0.00 0.00 35 1010.1
20260506015551 75 266 2.0 7.0 0.00 0.00 0.00 34 1010.1
20260506015049 75 283 0.0 4.0 0.00 0.00 0.00 34 1010.1
20260506014551 76 360 0.0 7.0 0.00 0.00 0.00 33 1010.0
20260506014049 76 246 0.0 8.0 0.00 0.00 0.00 33 1010.0
20260506013553 76 246 0.0 8.0 0.00 0.00 0.00 32 1010.0
20260506013102 76 248 3.0 7.0 0.00 0.00 0.00 32 1009.9
20260506012549 77 251 1.0 7.0 0.00 0.00 0.00 32 1009.9
20260506012049 77 240 0.0 8.0 0.00 0.00 0.00 32 1010.0
20260506011603 77 240 2.0 11.0 0.00 0.00 0.00 31 1010.0
20260506011048 78 259 3.0 10.0 0.00 0.00 0.00 31 1010.0
20260506010548 78 252 2.0 10.0 0.00 0.00 0.00 31 1009.9
20260506010050 78 236 3.0 12.0 0.00 0.00 0.00 31 1009.9
20260506005548 78 249 2.0 13.0 0.00 0.00 0.00 30 1009.9
20260506005049 78 236 3.0 15.0 0.00 0.00 0.00 30 1009.9
20260506004548 78 241 3.0 15.0 0.00 0.00 0.00 31 1009.9
20260506004047 78 246 4.0 14.0 0.00 0.00 0.00 31 1009.9
20260506003547 78 221 5.0 16.0 0.00 0.00 0.00 31 1009.9
20260506003047 78 198 1.0 8.0 0.00 0.00 0.00 31 1009.9
20260506002547 78 257 2.0 9.0 0.00 0.00 0.00 31 1009.9
20260506002047 79 232 0.0 8.0 0.00 0.00 0.00 31 1010.0
20260506001547 78 248 1.0 12.0 0.00 0.00 0.00 32 1010.0
20260506001047 78 233 3.0 12.0 0.00 0.00 0.00 31 1010.1
20260506000548 78 232 0.0 10.0 0.00 0.00 0.00 31 1010.1
20260506000049 78 193 4.0 10.0 0.00 0.00 0.00 31 1010.1
20260505235545 78 223 4.0 12.0 0.00 0.00 0.00 30 1010.2
20260505235046 78 246 5.0 14.0 0.00 0.00 0.00 30 1010.3
20260505234546 79 232 5.0 12.0 0.00 0.00 0.00 30 1010.1
20260505234045 79 246 1.0 11.0 0.00 0.00 0.00 30 1010.2
20260505233545 79 239 3.0 13.0 0.00 0.00 0.00 29 1010.2
20260505233045 79 240 1.0 17.0 0.00 0.00 0.00 29 1010.2
20260505232545 80 238 6.0 17.0 0.00 0.00 0.00 29 1010.2
20260505232047 80 227 5.0 18.0 0.00 0.00 0.00 29 1010.3
20260505231545 80 262 8.0 18.0 0.00 0.00 0.00 28 1010.4
20260505231047 80 251 5.0 14.0 0.00 0.00 0.00 28 1010.2
20260505230544 80 300 3.0 13.0 0.00 0.00 0.00 28 1010.3
20260505230055 80 260 3.0 9.0 0.00 0.00 0.00 30 1010.3
20260505225546 81 237 1.0 12.0 0.00 0.00 0.00 28 1010.2
20260505225044 81 246 6.0 12.0 0.00 0.00 0.00 28 1010.1
20260505224546 82 242 4.0 11.0 0.00 0.00 0.00 27 1010.2
20260505224045 83 257 3.0 13.0 0.00 0.00 0.00 27 1010.2
20260505223543 82 218 6.0 14.0 0.00 0.00 0.00 26 1010.0
20260505223055 82 263 1.0 16.0 0.00 0.00 0.00 28 1010.1
20260505222542 82 251 1.0 16.0 0.00 0.00 0.00 28 1010.1
20260505222042 82 254 2.0 16.0 0.00 0.00 0.00 27 1010.1
20260505221542 82 246 5.0 16.0 0.00 0.00 0.00 27 1010.2
20260505221044 81 250 5.0 13.0 0.00 0.00 0.00 29 1010.0
20260505220541 80 263 3.0 18.0 0.00 0.00 0.00 28 1010.2
20260505220044 82 227 8.0 16.0 0.00 0.00 0.00 27 1010.3
20260505215542 82 240 8.0 15.0 0.00 0.00 0.00 28 1010.3
20260505215041 83 243 3.0 14.0 0.00 0.00 0.00 27 1010.3
20260505214542 82 247 1.0 15.0 0.00 0.00 0.00 28 1010.3
20260505214041 82 285 5.0 22.0 0.00 0.00 0.00 28 1010.2
20260505213543 83 204 3.0 22.0 0.00 0.00 0.00 26 1010.3
20260505213052 83 259 4.0 17.0 0.00 0.00 0.00 28 1010.3
20260505212540 83 245 5.0 19.0 0.00 0.00 0.00 27 1010.5
20260505212038 81 248 8.0 21.0 0.00 0.00 0.00 28 1010.5
20260505211537 79 242 9.0 21.0 0.00 0.00 0.00 28 1010.6
20260505211036 79 232 4.0 15.0 0.00 0.00 0.00 29 1010.5
20260505210538 79 268 5.0 18.0 0.00 0.00 0.00 29 1010.5
20260505210032 79 264 5.0 18.0 0.00 0.00 0.00 29 1010.6
20260505205532 78 244 0.0 16.0 0.00 0.00 0.00 29 1010.7
20260505205032 78 250 2.0 16.0 0.00 0.00 0.00 29 1010.7
20260505204530 78 246 2.0 14.0 0.00 0.00 0.00 29 1010.8
20260505204032 78 227 4.0 13.0 0.00 0.00 0.00 29 1010.9
20260505203527 78 245 2.0 16.0 0.00 0.00 0.00 29 1011.0
20260505203040 77 225 4.0 15.0 0.00 0.00 0.00 29 1011.0
20260505202527 77 191 2.0 15.0 0.00 0.00 0.00 30 1011.0
20260505202026 77 236 3.0 14.0 0.00 0.00 0.00 30 1011.2
20260505201527 77 238 2.0 14.0 0.00 0.00 0.00 30 1011.3
20260505201023 76 236 3.0 9.0 0.00 0.00 0.00 31 1011.2
20260505200525 76 223 0.0 4.0 0.00 0.00 0.00 32 1011.3
20260505200031 76 224 0.0 0.0 0.00 0.00 0.00 32 1011.1
20260505195521 75 224 0.0 3.0 0.00 0.00 0.00 34 1011.1
20260505195023 75 224 0.0 4.0 0.00 0.00 0.00 32 1011.1
20260505194521 75 224 0.0 6.0 0.00 0.00 0.00 32 1011.1
20260505194021 75 231 1.0 5.0 0.00 0.00 0.00 33 1011.1
20260505193521 75 246 0.0 4.0 0.00 0.00 0.00 31 1011.2
20260505193022 75 246 1.0 4.0 0.00 0.00 0.00 31 1011.3
20260505192524 74 246 0.0 9.0 0.00 0.00 0.00 31 1011.2
20260505192020 74 244 0.0 9.0 0.00 0.00 0.00 30 1011.4
20260505191620 74 239 1.0 8.0 0.00 0.00 0.00 30 1011.4
20260505191021 74 233 0.0 4.0 0.00 0.00 0.00 30 1011.5
20260505190524 74 233 0.0 7.0 0.00 0.00 0.00 30 1011.5
20260505190019 75 229 3.0 7.0 0.00 0.00 0.00 31 1011.6
20260505185522 75 222 0.0 1.0 0.00 0.00 0.00 30 1011.6
20260505185019 75 219 0.0 7.0 0.00 0.00 0.00 32 1011.4
20260505184523 75 218 0.0 7.0 0.00 0.00 0.00 32 1011.6
20260505184019 75 175 0.0 5.0 0.00 0.00 0.00 33 1011.4
20260505183518 75 175 0.0 5.0 0.00 0.00 0.00 32 1011.7
20260505183020 75 165 0.0 5.0 0.00 0.00 0.00 33 1011.8
20260505182518 75 186 0.0 4.0 0.00 0.00 0.00 33 1011.8
20260505182018 75 182 0.0 1.0 0.00 0.00 0.00 32 1011.7
20260505181518 75 182 0.0 2.0 0.00 0.00 0.00 34 1011.7
20260505181019 75 182 0.0 5.0 0.00 0.00 0.00 34 1011.9
20260505180521 75 182 0.0 5.0 0.00 0.00 0.00 33 1012.0
20260505180017 75 238 0.0 1.0 0.00 0.00 0.00 33 1012.0
20260505175517 76 236 0.0 12.0 0.00 0.00 0.00 32 1011.9
20260505175017 76 242 4.0 12.0 0.00 0.00 0.00 32 1012.0
20260505174517 76 230 3.0 10.0 0.00 0.00 0.00 32 1012.0
20260505174016 76 242 0.0 4.0 0.00 0.00 0.00 33 1012.1
20260505173517 76 243 0.0 4.0 0.00 0.00 0.00 34 1012.0
20260505173034 76 248 0.0 1.0 0.00 0.00 0.00 34 1012.0
20260505172514 76 248 0.0 3.0 0.00 0.00 0.00 34 1011.8
20260505172014 76 248 0.0 9.0 0.00 0.00 0.00 34 1011.9
20260505171516 76 253 1.0 6.0 0.00 0.00 0.00 33 1011.9
20260505171013 76 261 0.0 7.0 0.00 0.00 0.00 33 1011.9
20260505170512 75 244 0.0 11.0 0.00 0.00 0.00 34 1012.0
20260505170017 75 250 1.0 11.0 0.00 0.00 0.00 34 1011.9
20260505165510 75 245 2.0 8.0 0.00 0.00 0.00 34 1011.9
20260505165010 75 236 4.0 9.0 0.00 0.00 0.00 34 1011.8
20260505164527 75 241 0.0 12.0 0.00 0.00 0.00 35 1011.8
20260505164009 75 250 4.0 15.0 0.00 0.00 0.00 34 1011.9
20260505163609 75 241 4.0 15.0 0.00 0.00 0.00 33 1011.8
20260505163012 75 214 1.0 11.0 0.00 0.00 0.00 34 1011.7
20260505162507 75 250 3.0 11.0 0.00 0.00 0.00 34 1011.7
20260505162006 74 277 1.0 8.0 0.00 0.00 0.00 33 1011.7
20260505161507 74 49 0.0 1.0 0.00 0.00 0.00 33 1011.7
20260505161007 74 57 0.0 4.0 0.00 0.00 0.00 32 1011.7
20260505160504 74 57 0.0 5.0 0.00 0.00 0.00 32 1011.7
20260505153115 72 98 0.0 6.0 0.00 0.00 0.00 33 1011.6
20260505152557 72 92 0.0 0.0 0.00 0.00 0.00 34 1011.5
20260505152057 72 92 0.0 0.0 0.00 0.00 0.00 34 1011.4
20260505151604 72 92 0.0 0.0 0.00 0.00 0.00 34 1011.7
20260505151057 72 92 0.0 3.0 0.00 0.00 0.00 35 1011.8
20260505150559 71 92 1.0 3.0 0.00 0.00 0.00 34 1011.7
20260505140554 69 11 0.0 2.0 0.00 0.00 0.00 37 1011.4
20260505140104 69 11 0.0 2.0 0.00 0.00 0.00 41 1011.5
20260505124543 68 273 0.0 0.0 0.00 0.00 0.00 36 1010.1
20260505124041 68 273 0.0 0.0 0.00 0.00 0.00 36 1010.2
20260505123541 68 273 0.0 1.0 0.00 0.00 0.00 36 1010.0
20260505123041 67 273 0.0 1.0 0.00 0.00 0.00 36 1009.8
20260505122544 67 273 0.0 1.0 0.00 0.00 0.00 36 1010.0
20260505122039 68 273 0.0 2.0 0.00 0.00 0.00 36 1010.0
20260505121542 68 273 0.0 2.0 0.00 0.00 0.00 35 1009.9
20260505121038 68 291 0.0 0.0 0.00 0.00 0.00 35 1010.0
20260505120538 68 290 0.0 0.0 0.00 0.00 0.00 34 1009.9
20260505120036 69 291 0.0 1.0 0.00 0.00 0.00 34 1009.8
20260505115534 69 290 0.0 5.0 0.00 0.00 0.00 32 1009.7
20260505115036 70 290 0.0 5.0 0.00 0.00 0.00 32 1009.5
20260505114539 71 287 0.0 2.0 0.00 0.00 0.00 30 1009.4
20260505114035 71 287 0.0 4.0 0.00 0.00 0.00 29 1009.3
20260505113534 71 287 1.0 7.0 0.00 0.00 0.00 30 1009.2
20260505113034 71 266 2.0 7.0 0.00 0.00 0.00 30 1009.2
20260505112534 71 240 0.0 5.0 0.00 0.00 0.00 30 1009.3
20260505112034 70 240 0.0 5.0 0.00 0.00 0.00 30 1009.3
20260505111538 70 240 0.0 6.0 0.00 0.00 0.00 31 1009.3
20260505111033 69 232 0.0 6.0 0.00 0.00 0.00 32 1009.4
20260505110532 69 232 0.0 3.0 0.00 0.00 0.00 33 1009.3
20260505102027 70 277 0.0 3.0 0.00 0.00 0.00 31 1009.2
20260505101529 71 277 0.0 6.0 0.00 0.00 0.00 29 1009.5
20260505101027 71 277 0.0 8.0 0.00 0.00 0.00 29 1009.3
20260505100527 71 277 0.0 8.0 0.00 0.00 0.00 28 1009.2
20260505100039 71 244 2.0 5.0 0.00 0.00 0.00 28 1009.1
20260505095528 71 273 1.0 9.0 0.00 0.00 0.00 28 1009.1
20260505095025 71 273 0.0 6.0 0.00 0.00 0.00 28 1009.1
20260505094525 71 265 0.0 4.0 0.00 0.00 0.00 29 1009.2
20260505094026 71 265 0.0 4.0 0.00 0.00 0.00 28 1009.1
20260505093525 72 264 0.0 3.0 0.00 0.00 0.00 27 1009.1
20260505093025 72 261 0.0 8.0 0.00 0.00 0.00 26 1009.1
20260505092525 72 261 1.0 8.0 0.00 0.00 0.00 26 1009.1
20260505092025 72 280 0.0 5.0 0.00 0.00 0.00 26 1009.0
20260505091524 72 292 0.0 4.0 0.00 0.00 0.00 27 1008.9
20260505091122 72 290 0.0 4.0 0.00 0.00 0.00 27 1009.0
20260505090524 72 290 0.0 3.0 0.00 0.00 0.00 27 1009.1
20260505090038 72 288 0.0 5.0 0.00 0.00 0.00 27 1009.4
20260505085521 72 289 0.0 8.0 0.00 0.00 0.00 27 1009.3
20260505085021 72 273 3.0 9.0 0.00 0.00 0.00 28 1009.2
20260505084529 71 290 2.0 9.0 0.00 0.00 0.00 28 1009.2
20260505084021 71 287 2.0 7.0 0.00 0.00 0.00 28 1009.1
20260505083520 71 284 3.0 9.0 0.00 0.00 0.00 29 1009.2
20260505083033 71 281 2.0 7.0 0.00 0.00 0.00 30 1009.1
20260505082620 71 283 0.0 9.0 0.00 0.00 0.00 29 1009.2
20260505082019 71 289 2.0 10.0 0.00 0.00 0.00 29 1009.3
20260505081528 71 250 2.0 10.0 0.00 0.00 0.00 29 1009.2
20260505081018 71 259 2.0 8.0 0.00 0.00 0.00 29 1009.4
20260505080517 71 255 0.0 3.0 0.00 0.00 0.00 30 1009.6
20260505080020 71 255 1.0 3.0 0.00 0.00 0.00 31 1009.5
20260505075515 71 255 0.0 3.0 0.00 0.00 0.00 31 1009.7
20260505075015 71 255 0.0 8.0 0.00 0.00 0.00 30 1009.8
20260505074515 72 239 3.0 8.0 0.00 0.00 0.00 29 1009.6
20260505074016 72 238 0.0 8.0 0.00 0.00 0.00 30 1009.8
20260505073516 72 238 1.0 8.0 0.00 0.00 0.00 29 1009.8
20260505073016 72 238 1.0 5.0 0.00 0.00 0.00 29 1010.0
20260505072514 72 238 1.0 7.0 0.00 0.00 0.00 29 1009.9
20260505072014 72 238 0.0 7.0 0.00 0.00 0.00 30 1010.0
20260505071523 72 204 2.0 7.0 0.00 0.00 0.00 30 1009.9
20260505071013 71 234 1.0 7.0 0.00 0.00 0.00 30 1009.9
20260505070512 71 232 0.0 4.0 0.00 0.00 0.00 32 1009.9
20260505070011 71 232 0.0 3.0 0.00 0.00 0.00 32 1009.9
20260505065511 71 232 0.0 4.0 0.00 0.00 0.00 32 1009.9
20260505065010 71 232 0.0 6.0 0.00 0.00 0.00 33 1010.0
20260505064512 71 237 2.0 6.0 0.00 0.00 0.00 33 1009.7
20260505064010 71 235 0.0 2.0 0.00 0.00 0.00 33 1009.7
20260505063509 71 235 0.0 0.0 0.00 0.00 0.00 32 1009.7
20260505063009 71 235 0.0 5.0 0.00 0.00 0.00 33 1009.8
20260505062509 71 235 0.0 6.0 0.00 0.00 0.00 33 1009.8
20260505062008 71 215 2.0 6.0 0.00 0.00 0.00 33 1009.8
20260505061522 71 233 0.0 0.0 0.00 0.00 0.00 32 1009.8
20260505061007 72 233 0.0 0.0 0.00 0.00 0.00 32 1009.9
20260505060509 72 233 0.0 1.0 0.00 0.00 0.00 32 1009.8
20260505060004 72 233 0.0 6.0 0.00 0.00 0.00 31 1009.9
20260505055505 72 223 2.0 6.0 0.00 0.00 0.00 32 1009.9